Regional Weather Roundup
Issued by NWS

Home | Current Version | Previous Version | Text Only | Print | Product List | Glossary On
Versions: 1 2 3 4 5 6 7 8 9 10 11 12 13 14 15 16 17 18 19 20 21 22 23 24 25 26 27 28 29 30 31 32 33 34 35 36 37 38 39 40 41 42 43 44 45 46 47 48 49 50
000
ASUS43 KDMX 061707
RWRIA

WEATHER ROUNDUP FOR IOWA
NATIONAL WEATHER SERVICE DES MOINES IA
1100 AM CST FRI MAR 06 2015

NOTE: "FAIR" INDICATES FEW OR NO CLOUDS BELOW 12,000 FEET WITH NO
SIGNIFICANT WEATHER AND/OR OBSTRUCTIONS TO VISIBILITY.

* - THESE STATIONS ARE NOT NWS STATIONS...THUS NOT UNDER NWS
QUALITY CONTROL.  THEY ALSO DO NOT REPORT WEATHER SUCH
AS PRECIPITATION OR FOG.

IAZ001>003-012>014-020>022-031>034-043>046-061800-
   NORTHWEST IOWA

CITY           SKY/WX    TMP DP  RH WIND       PRES   REMARKS
CARROLL *      SUNNY     41  21  45 SW12      30.16S
CHEROKEE *     SUNNY     39  21  48 W7        30.14S WCI  34
DENISON *      SUNNY     37  19  48 SW10      30.16S WCI  30
LE MARS *      SUNNY     45  21  39 SW8       30.13F
ORANGE CITY *  SUNNY     45  18  33 SW6       30.11S
SHELDON *      SUNNY     45  19  36 W9        30.09F
SIOUX CITY     SUNNY     48  19  31 MISG      30.15F
SPENCER        SUNNY     44  21  40 W13       30.10F
STORM LAKE *   SUNNY     41  21  45 W15       30.13S
$$

IAZ055>058-069>071-079>083-090>094-061800-
   SOUTHWEST IOWA

CITY           SKY/WX    TMP DP  RH WIND       PRES   REMARKS
ATLANTIC *     SUNNY     41  19  42 SW12      30.20S
AUDUBON *      SUNNY     41  19  42 SW9       30.18F
CLARINDA *     SUNNY     46  19  34 W13       30.26S
COUNCIL BLFS * SUNNY     41  19  42 SW9       30.21S
CRESTON *      SUNNY     41  19  42 W14       30.21R
HARLAN  *      SUNNY     41  21  45 SW12      30.23S
LAMONI         SUNNY     43  23  45 W13       30.22S
RED OAK *      SUNNY     45  19  36 W10G16    30.23S
SHENANDOAH *   SUNNY     46  19  34 W13       30.25S
$$

IAZ047>049-059>061-072>074-084-061800-
   CENTRAL IOWA

CITY           SKY/WX    TMP DP  RH WIND       PRES   REMARKS
AMES           SUNNY     33  20  58 W10       30.17F WCI  25
ANKENY *       SUNNY     37  19  48 W7G13     30.19S WCI  32
CHARITON *     SUNNY     37  21  52 W12       30.20S WCI  30
DES MOINES     SUNNY     38  18  44 W10       30.19F WCI  31
GRINNELL*      SUNNY     32  21  64 SW12      30.18F WCI  23
KNOXVILLE *    SUNNY     37  19  48 W12       30.19S WCI  30
MARSHALLTOWN   SUNNY     29  19  66 SW14      30.16F WCI  18
PELLA *        SUNNY     36  23  60 W10       30.21F WCI  28
PERRY *          N/A     37  23  56 W8        30.18S WCI  31
$$

IAZ004>006-015-016-023>025-035-036-061800-
   NORTH CENTRAL IOWA

CITY           SKY/WX    TMP DP  RH WIND       PRES   REMARKS
ALGONA *       SUNNY     36  21  55 SW9       30.11F WCI  29
CLARION *      SUNNY     32  23  69 W10       30.13F WCI  24
ESTHERVILLE    SUNNY     35  20  54 W12       30.08F WCI  27
FORT DODGE *   SUNNY     34  21  60 SW6       30.15F WCI  29
MASON CITY     SUNNY     29  19  66 SW8       30.12F WCI  21
FOREST CITY *  SUNNY     32  18  55 SW9       30.11S WCI  24
IOWA FALLS *     N/A     30  21  69 SW10      30.16S WCI  21
$$

IAZ007>011-017>019-026>030-037>042-050>054-066-061800-
   NORTHEAST IOWA

CITY           SKY/WX    TMP DP  RH WIND       PRES   REMARKS
CEDAR RAPIDS   SUNNY     26  18  71 SW14      30.20F WCI  14
CHARLES CITY * SUNNY     23  16  74 SW13      30.14S WCI  11
CLINTON *      MOSUNNY   23  12  63 S9        30.29F WCI  13
DECORAH *      SUNNY     23  12  63 VRB7G18   30.13F WCI  15
DUBUQUE        MOSUNNY   19  10  68 S16       30.20F WCI   4
MONTICELLO *   SUNNY     23  12  63 S12       30.23S WCI  12
OELWEIN *      SUNNY     23  16  74 SW14      30.17F WCI  11
WATERLOO       SUNNY     26  17  68 SW10      30.17F WCI  16
$$

IAZ064-065-067-068-078-061800-
   EAST CENTRAL IOWA

CITY           SKY/WX    TMP DP  RH WIND       PRES   REMARKS
DAVENPORT      SUNNY     25  11  55 S20G25    30.26F WCI  11
IOWA CITY      SUNNY     27  16  63 SW12      30.25F WCI  17
MT. PLEASANT * SUNNY     30  18  59 S16       30.25F WCI  19
MUSCATINE *    SUNNY     28  16  59 S14G21    30.27S WCI  17
QUAD CITIES    SUNNY     26  12  55 S13G25    30.26F WCI  15
$$

IAZ062-063-075>077-085>089-095>099-061800-
   SOUTHEAST IOWA

CITY           SKY/WX    TMP DP  RH WIND       PRES   REMARKS
BURLINGTON     MOSUNNY   29  18  63 SW20G25   30.26F WCI  16
FAIRFIELD *    SUNNY     34  19  55 SW16      30.23S WCI  23
FORT MADISON * SUNNY     28  16  59 S13G20    30.26F WCI  18
KEOKUK *       SUNNY     32  18  55 SW15G22   30.26F WCI  22
OSKALOOSA *      N/A     34  21  60 W14       30.21F WCI  24
CENTERVILLE *  SUNNY     37  21  52 SW17      30.23S WCI  28
OTTUMWA        SUNNY     36  20  52 W16       30.20F WCI  26
WASHINGTON *   SUNNY     30  19  64 SW13      30.24R WCI  20
$$

ABBREVIATIONS USED IN REMARKS
   TC - TEMPERATURES IN CELSIUS
  WCI - WIND CHILL INDEX
   HX - HEAT INDEX
  VSB - VISIBILITY
$$




USA.gov is the U.S. government's official web portal to all federal, state and local government web resources and services.